Time,TemperatureF,DewpointF,PressureIn,WindDirection,WindDirectionDegrees,WindSpeedMPH,WindSpeedGustMPH,Humidity,HourlyPrecipIn,Conditions,Clouds,dailyrainin,SolarRadiationWatts/m^2,SoftwareType,DateUTC
2013-08-09 00:43:00,58.0,57.0,-100.00,South,180,2.0,3.0,98,0.00,,,-99.99,0.000000,,2013-08-09 08:43:00,
2013-08-09 00:53:00,58.0,57.0,-100.00,South,180,2.0,3.0,98,0.00,,,-99.99,0.000000,,2013-08-09 08:53:00,
2013-08-09 01:22:00,58.0,57.0,-100.00,South,190,1.0,4.0,98,0.02,,,0.38,0.000000,,2013-08-09 09:22:00,
2013-08-09 01:32:00,58.0,57.0,-100.00,South,190,1.0,4.0,98,0.02,,,0.38,0.000000,,2013-08-09 09:32:00,
2013-08-09 01:43:00,58.0,57.0,-100.00,South,190,1.0,4.0,98,0.02,,,0.38,0.000000,,2013-08-09 09:43:00,
2013-08-09 01:52:00,58.0,57.0,-100.00,South,190,1.0,4.0,98,0.02,,,0.38,0.000000,,2013-08-09 09:52:00,
2013-08-09 02:22:00,57.0,56.0,-100.00,South,170,1.0,4.0,98,0.01,,,0.39,0.000000,,2013-08-09 10:22:00,
2013-08-09 02:32:00,57.0,56.0,-100.00,South,170,1.0,4.0,98,0.01,,,0.39,0.000000,,2013-08-09 10:32:00,
2013-08-09 02:43:00,57.0,56.0,-100.00,South,170,1.0,4.0,98,0.01,,,0.39,0.000000,,2013-08-09 10:43:00,
2013-08-09 02:53:00,57.0,56.0,-100.00,South,170,1.0,4.0,98,0.01,,,0.39,0.000000,,2013-08-09 10:53:00,
2013-08-09 03:42:00,57.0,56.0,-100.00,SSW,197,1.0,4.0,98,0.01,,,0.40,0.000000,,2013-08-09 11:42:00,
2013-08-09 03:53:00,57.0,56.0,-100.00,SSW,197,1.0,4.0,98,0.01,,,0.40,0.000000,,2013-08-09 11:53:00,
2013-08-09 04:43:00,57.0,56.0,-100.00,SSW,213,3.0,5.0,98,0.00,,,0.40,0.000000,,2013-08-09 12:43:00,
2013-08-09 04:52:00,57.0,56.0,-100.00,SSW,213,3.0,5.0,98,0.00,,,0.40,0.000000,,2013-08-09 12:52:00,
2013-08-09 05:23:00,57.0,56.0,-100.00,South,183,2.0,4.0,98,0.01,,,0.41,0.000000,,2013-08-09 13:23:00,
2013-08-09 05:32:00,57.0,56.0,-100.00,South,183,2.0,4.0,98,0.01,,,0.41,0.000000,,2013-08-09 13:32:00,
2013-08-09 05:43:00,57.0,56.0,-100.00,South,183,2.0,4.0,98,0.01,,,0.41,0.000000,,2013-08-09 13:43:00,
2013-08-09 05:52:00,57.0,56.0,-100.00,South,183,2.0,4.0,98,0.01,,,0.41,0.000000,,2013-08-09 13:52:00,
2013-08-09 06:43:00,56.0,55.0,-100.00,South,176,3.0,6.0,98,0.01,,,0.42,2.000000,,2013-08-09 14:43:00,
2013-08-09 06:53:00,56.0,55.0,-100.00,South,176,3.0,6.0,98,0.01,,,0.42,2.000000,,2013-08-09 14:53:00,
2013-08-09 07:44:00,56.0,55.0,-100.00,SSW,197,2.0,5.0,98,0.03,,,0.30,20.000000,,2013-08-09 15:44:00,
2013-08-09 07:53:00,56.0,55.0,-100.00,SSW,197,2.0,5.0,98,0.03,,,0.30,20.000000,,2013-08-09 15:53:00,
2013-08-09 08:43:00,57.0,56.0,-100.00,South,186,3.0,4.0,98,0.00,,,0.25,75.000000,,2013-08-09 16:43:00,
2013-08-09 08:53:00,57.0,56.0,-100.00,South,186,3.0,4.0,98,0.00,,,0.25,75.000000,,2013-08-09 16:53:00,
2013-08-09 09:22:00,57.0,56.0,-100.00,NNW,348,2.0,4.0,98,0.01,,,0.26,88.000000,,2013-08-09 17:22:00,
2013-08-09 09:33:00,57.0,56.0,-100.00,NNW,348,2.0,4.0,98,0.01,,,0.26,88.000000,,2013-08-09 17:33:00,
2013-08-09 09:43:00,57.0,56.0,-100.00,NNW,348,2.0,4.0,98,0.01,,,0.26,88.000000,,2013-08-09 17:43:00,
2013-08-09 09:52:00,57.0,56.0,-100.00,NNW,348,2.0,4.0,98,0.01,,,0.26,88.000000,,2013-08-09 17:52:00,
2013-08-09 10:22:00,60.0,57.0,-100.00,North,4,5.0,9.0,91,0.01,,,0.27,249.000000,,2013-08-09 18:22:00,
2013-08-09 10:32:00,60.0,57.0,-100.00,North,4,5.0,9.0,91,0.01,,,0.27,249.000000,,2013-08-09 18:32:00,
2013-08-09 10:43:00,60.0,57.0,-100.00,North,4,5.0,9.0,91,0.01,,,0.27,249.000000,,2013-08-09 18:43:00,
2013-08-09 10:52:00,60.0,57.0,-100.00,North,4,5.0,9.0,91,0.01,,,0.27,249.000000,,2013-08-09 18:52:00,
2013-08-09 11:32:00,62.0,56.0,-100.00,NNE,28,5.0,9.0,82,0.00,,,0.27,461.000000,,2013-08-09 19:32:00,
2013-08-09 11:43:00,62.0,56.0,-100.00,NNE,28,5.0,9.0,82,0.00,,,0.27,461.000000,,2013-08-09 19:43:00,
2013-08-09 11:52:00,62.0,56.0,-100.00,NNE,28,5.0,9.0,82,0.00,,,0.27,461.000000,,2013-08-09 19:52:00,
2013-08-09 12:32:00,63.0,54.0,-100.00,North,8,7.0,11.0,72,-99.99,,,0.27,677.000000,,2013-08-09 20:32:00,
2013-08-09 12:43:00,63.0,54.0,-100.00,North,8,7.0,11.0,72,-99.99,,,0.27,677.000000,,2013-08-09 20:43:00,
2013-08-09 12:52:00,63.0,54.0,-100.00,North,8,7.0,11.0,72,-99.99,,,0.27,677.000000,,2013-08-09 20:52:00,
2013-08-09 16:22:00,64.0,54.0,-100.00,NNW,345,6.0,11.0,69,-99.99,,,0.25,347.000000,,2013-08-10 00:22:00,
2013-08-09 16:33:00,64.0,54.0,-100.00,NNW,345,6.0,11.0,69,-99.99,,,0.25,347.000000,,2013-08-10 00:33:00,
2013-08-09 16:43:00,64.0,54.0,-100.00,NNW,345,6.0,11.0,69,-99.99,,,0.25,347.000000,,2013-08-10 00:43:00,
2013-08-09 16:52:00,64.0,54.0,-100.00,NNW,345,6.0,11.0,69,-99.99,,,0.25,347.000000,,2013-08-10 00:52:00,
2013-08-09 17:21:00,63.0,53.0,-100.00,North,1,7.0,11.0,70,0.00,,,0.23,176.000000,,2013-08-10 01:21:00,
2013-08-09 17:32:00,63.0,53.0,-100.00,North,1,7.0,11.0,70,0.00,,,0.23,176.000000,,2013-08-10 01:32:00,
2013-08-09 17:42:00,63.0,53.0,-100.00,North,1,7.0,11.0,70,0.00,,,0.23,176.000000,,2013-08-10 01:42:00,
2013-08-09 17:52:00,63.0,53.0,-100.00,North,1,7.0,11.0,70,0.00,,,0.23,176.000000,,2013-08-10 01:52:00,
2013-08-09 18:21:00,63.0,53.0,-100.00,North,3,6.0,12.0,70,0.00,,,0.23,165.000000,,2013-08-10 02:21:00,
2013-08-09 18:32:00,63.0,53.0,-100.00,North,3,6.0,12.0,70,0.00,,,0.23,165.000000,,2013-08-10 02:32:00,
2013-08-09 18:42:00,63.0,53.0,-100.00,North,3,6.0,12.0,70,0.00,,,0.23,165.000000,,2013-08-10 02:42:00,
2013-08-09 18:52:00,63.0,53.0,-100.00,North,3,6.0,12.0,70,0.00,,,0.23,165.000000,,2013-08-10 02:52:00,
2013-08-09 19:21:00,63.0,54.0,-100.00,North,1,7.0,13.0,72,0.00,,,0.18,157.000000,,2013-08-10 03:21:00,
2013-08-09 19:32:00,63.0,54.0,-100.00,North,1,7.0,13.0,72,0.00,,,0.18,157.000000,,2013-08-10 03:32:00,
2013-08-09 19:42:00,63.0,54.0,-100.00,North,1,7.0,13.0,72,0.00,,,0.18,157.000000,,2013-08-10 03:42:00,
2013-08-09 19:51:00,63.0,54.0,-100.00,North,1,7.0,13.0,72,0.00,,,0.18,157.000000,,2013-08-10 03:51:00,
2013-08-09 20:22:00,60.0,52.0,-100.00,North,1,4.0,11.0,75,0.00,,,0.17,37.000000,,2013-08-10 04:22:00,
2013-08-09 20:32:00,60.0,52.0,-100.00,North,1,4.0,11.0,75,0.00,,,0.17,37.000000,,2013-08-10 04:32:00,
2013-08-09 20:42:00,60.0,52.0,-100.00,North,1,4.0,11.0,75,0.00,,,0.17,37.000000,,2013-08-10 04:42:00,
2013-08-09 20:53:00,60.0,52.0,-100.00,North,1,4.0,11.0,75,0.00,,,0.17,37.000000,,2013-08-10 04:53:00,
2013-08-09 21:42:00,56.0,51.0,-100.00,NNW,345,2.0,6.0,84,0.00,,,0.15,12.000000,,2013-08-10 05:42:00,
2013-08-09 21:52:00,56.0,51.0,-100.00,NNW,345,2.0,6.0,84,0.00,,,0.15,12.000000,,2013-08-10 05:52:00,
2013-08-09 22:44:00,55.0,51.0,-100.00,NNW,333,3.0,5.0,87,0.00,,,0.15,0.000000,,2013-08-10 06:44:00,
2013-08-09 22:52:00,55.0,51.0,-100.00,NNW,333,3.0,5.0,87,0.00,,,0.15,0.000000,,2013-08-10 06:52:00,
2013-08-09 23:43:00,54.0,51.0,-100.00,North,359,3.0,5.0,90,0.00,,,0.11,0.000000,,2013-08-10 07:43:00,
2013-08-09 23:52:00,54.0,51.0,-100.00,North,359,3.0,5.0,90,0.00,,,0.11,0.000000,,2013-08-10 07:52:00,